This demonstration page uses our WeatherBlox Daily Observations layout. Learn more.

Left ArrowRight Arrow

38.20091, -84.87328

Hourly Observations for July 27, 2018

Temp ( °F °C ) Dew Point ( °F °C ) Humidity (%) Winds ( mph kmh ) Pressure ( in mb ) Visibility ( mi km ) Precip ( " mm )
12:53 am 00:53 Mostly Cloudy 74 23.3 68 20 82 82 WSW 5 7 29.96 1015 10 16 0.00 0.00
1:53 am 01:53 Mostly Clear 74 23.3 67 19.4 79 79 WNW 3 6 29.96 1014 10 16 0.00 0.00
2:53 am 02:53 Cloudy 74 23.3 67 19.4 79 79 NW 5 7 29.96 1015 10 16 0.00 0.00
3:53 am 03:53 Cloudy 73 22.8 66 18.9 79 79 NW 6 9 29.96 1015 10 16 0.00 0.00
4:53 am 04:53 Mostly Cloudy 72 22.2 65 18.3 79 79 WNW 5 7 29.97 1015 10 16 0.00 0.00
5:53 am 05:53 Mostly Cloudy 71 21.7 65 18.3 81 81 Calm 29.97 1015 10 16 0.00 0.00
6:53 am 06:53 Partly Cloudy 70 21.1 65 18.3 84 84 Calm 29.99 1016 10 16 0.00 0.03
7:53 am 07:53 Sunny 71 21.7 65 18.3 81 81 Calm 30.00 1016 10 16 0.00 0.00
8:53 am 08:53 Sunny 73 22.8 64 17.8 74 74 NW 6 9 30.02 1017 10 16 0.00 0.00
9:53 am 09:53 Sunny 76 24.4 62 16.7 62 62 VRB 3 6 30.03 1017 10 16 0.00 0.00
10:53 am 10:53 Sunny 78 25.6 60 15.6 54 54 W 7 11 30.04 1017 10 16 0.00 0.00
11:53 am 11:53 Mostly Sunny 79 26.1 60 15.6 52 52 WNW 10 17 30.05 1018 10 16 0.00 0.00
12:53 pm 12:53 Sunny 80 26.7 58 14.4 47 47 W 9 15 30.04 1017 10 16 0.00 0.00
1:53 pm 13:53 Mostly Sunny 81 27.2 59 15 47 47 VRB 7 11 30.04 1017 10 16 0.00 0.00
2:53 pm 14:53 Sunny 82 27.8 56 13.3 41 41 W 14 22 30.04 1017 10 16 0.00 0.00
3:53 pm 15:53 Mostly Sunny 82 27.8 56 13.3 41 41 W 8 13 30.03 1017 10 16 0.00 0.00
4:53 pm 16:53 Sunny 81 27.2 57 13.9 44 44 WNW 7 11 30.03 1017 10 16 0.00 0.00
5:53 pm 17:53 Mostly Sunny 81 27.2 57 13.9 44 44 W 9 15 30.03 1017 10 16 0.00 0.00
6:53 pm 18:53 Sunny 81 27.2 58 14.4 45 45 NW 9 15 30.03 1017 10 16 0.00 0.00
7:53 pm 19:53 Sunny 79 26.1 59 15 50 50 NW 5 7 30.04 1017 10 16 0.00 0.00
8:53 pm 20:53 Sunny 74 23.3 61 16.1 64 64 Calm 30.05 1018 10 16 0.00 0.00
9:53 pm 21:53 Clear 69 20.6 61 16.1 76 76 NNW 3 6 30.06 1018 10 16 0.00 0.00
10:53 pm 22:53 Clear 67 19.4 62 16.7 84 84 NNW 5 7 30.07 1018 10 16 0.00 0.00
11:53 pm 23:53 Clear 66 18.9 61 16.1 84 84 NNW 3 6 30.08 1019 10 16 0.00 0.00

Powered by AerisWeather